Погода в Томмоте

Погода в Томмоте : погода сейчас, прогноз погоды и архив. Всё, что Вы хотите узнать о погоде в Томмоте!

Поиск расширенной информации на нашем сайте:

Другие новости

Новости СМИ2

Главная страница сайта

Новости сайта

03.07.2017

Напоминаем, что на нашем специализированном сайте Метеоцентр.Азия вы можете получить высокодетализированные автоматические прогнозы погоды по пунктам России, СНГ и мира в авиационном формате (включающие направление и скорость ветра, видимость, явления погоды, количество и форму облачности, нижнюю и верхнюю границу облачности).

Рекомендуем: Смотрите подробности газонокосилки сабо ремонт тут.

Погода в Томмоте - сегодня

Время (UTC), дата Ветер
(°,м/с) 
Видим.   Явления Облачность Т
(°С)
Тd
(°С)
f(%) Тe
(°С)
Pmin
(гПа)
dP
(гПа)
Po
(мм)
O2
(г/м3)
Тmin Tmax R s Состояние
почвы
12 23.07.17 030 (СВ) 20000 м    6/5 1000 м верхняя 
[Sc|Ci fib]
+15.8 +10.7 72 +20  1007.7  0.1  731  276    +20.5       
15 23.07.17 020 (С) 20000 м    10/10 1000 м 
[St]
+10.3 +7.8 84 +11  1008.8  0.5  731  283           
18 23.07.17 тихо ()   20000 м    10/10 1000 м 
[Sc]
+8.8 +7.3 90 +9  1009.4  0.4  732  284           
21 23.07.17 040 (СВ) 20000 м    9/8 1000 м средняя 
[Sc|Ac trans]
+8.9 +6.5 85 +10  1010.2  0.8  732  285           
00 24.07.17 040 (СВ) 20000 м    10/4 1000 м средняя 
[Sc|Ac und]
+12.2 +9.7 85 +14  1010.3  0.6  733  281  +6.4        сухая 
03 24.07.17 310 (СЗ) 20000 м    10/5 600 м средняя 
[Cu hum|Ac und]
+16.3 +10.3 68 +20  1009.3  -0.6  732  277           
06 24.07.17 300 (СЗ) 20000 м    6/3 600 м средняя 
[Cu hum|Ac trans]
+20.1 +10.3 53 +22  1007.3  -1.5  731  272           
09 24.07.17 350 (С) 20000 м    8/8 600 м кучево-дожд. 
[Cb cap]
+19.3 +11.1 59 +23  1006.6  -0.7  731  273           
12 24.07.17 тихо ()   20000 м  {гроза}  6/4 600 м кучево-дожд., верхняя 
[Cb cap|Ci ing]
+15.4 +12.5 83 +21  1007.6  0.4  731  276    +22       
15 24.07.17 тихо ()   20000 м    8/8 1000 м 
[Sc]
+9.9 +8.9 93 +10  1008.8  0.5  731  283           
18 24.07.17 тихо ()   20000 м    9/9 1000 м 
[Sc]
+9.7 +8.9 95 +10  1009  0.2  731  283           
21 24.07.17 360 (С) 20000 м  слаб. ливневой дождь  10/10 600 м кучево-дожд. 
[Cb cap]
+9.3 +8.3 93 +10  1009.3  0.3  732  284           
00 25.07.17 360 (С) 20000 м  {ливн. осадки}  10/10 600 м кучево-дожд. 
[Cb cap]
+15.1 +11.9 81 +20  1008.8  0.2  732  277  +8.7    0.0    влажная 
03 25.07.17 350 (С) 20000 м  в посл. час ливневой дождь  10/8 600 м кучево-дожд., верхняя 
[Cb cap|Ci sp]
+17.2 +13.1 77 +24  1008.1  -0.4  731  275           
06 25.07.17 140 (ЮВ) 20000 м  {ливн. осадки}  8/8 600 м кучево-дожд. 
[Cb cap]
+18.9 +11.9 64 +24  1006.5  -1.3  731  273           
09 25.07.17 320 (СЗ) 20000 м    8/8 600 м кучево-дожд. 
[Cb cap]
+18.9 +13.5 71 +27  1006.3  -0.3  730  272           
12 25.07.17 тихо ()   20000 м  {гроза, ливн. осадки}  10/5 600 м кучево-дожд., средняя, верхняя 
[Cb cap|Ac trans|Ci]
+14.2 +13.1 93 +20  1007.5  0.6  731  277    +21  0.8     
15 25.07.17 тихо ()   20000 м    10/6 2000 м средняя, верхняя 
[Ac As|Ci sp]
+11.2 +10.6 96 +14  1008.2  0.3  731  281           
18 25.07.17 тихо ()   0500 м  туман  ?/?  
+10.2 +10 99 +12  1008.5  0.1  731  282           
21 25.07.17 020 (С) 0500 м  туман  ?/?  
+9.1 +9.1 100 +11  1008.9  0.2  731  283           
00 26.07.17 010 (С) 20000 м  {туман}  10/6 300 м верхняя 
[St|Ci fib]
+12.6 +11.5 93 +18  1009  0.6  732  280  +8.9        влажная 
03 26.07.17 350 (С) 20000 м    9/8 600 м кучево-дожд., верхняя 
[Cb cap|Ci fib]
+18.1 +13.7 75 +27  1007.3  -1  731  273           
06 26.07.17 040 (СВ) 20000 м  в посл. час ливневой дождь  9/8 600 м кучево-дожд., верхняя 
[Cb cap|Ci fib]
+19.9 +6.4 41 +21  1006  -1.1  730  273           
09 26.07.17 320 (СЗ) 20000 м    9/3 600 м верхняя 
[Cu med, cong|Ci sp]
+21.6 +4.2 32 +22  1005  -0.8  730  272           
12 26.07.17 170 (Ю) 20000 м    6/1 1000 м верхняя 
[Sc|Ci sp]
+17.7 +10 61 +21  1005.4  730  274    +22.8  0.0     
Время (UTC), дата Ветер
(°,м/с) 
Видим.   Явления Облачность Т
(°С)
Тd
(°С)
f(%) Тe
(°С)
Pmin
(гПа)
dP
(гПа)
Po
(мм)
O2
(г/м3)
Тmin Tmax R s Состояние
почвы

Для получения пояснительной информации подведите курсор к названию столбца.

ПОГОДА в Томмоте - архив

Всё, что Вы хотите узнать о погоде в Томмоте - удобно и подробно!

Выберите нужную дату (начиная с 1 января 2015* года) и нажмите кнопку "Найти".
Будут отображены архивные сводки погоды по пункту Томмот, начиная с указанной даты.


Отображать данные в формате CSV (для использования в таблицах Excel)


Внимание! Наш архив погоды предназначен исключительно для личного некоммерческого использования в познавательных целях. Если Вам необходимы официальные справки о состоянии погоды (для производственных, юридических, коммерческих и т.п. целей), обращайтесь в органы Росгидромета.

*Примечание: данная дата относится к архиву по метеостанциям СССР (Россия, СНГ, Балтия).
Архив по метеостанциям Зарубежной Европы и Азии (кроме Китая) хранится 10 дней, по другим регионам земного шара (Китай, Африка, Америка, Австралия, Океания) - 1 день.

Томмот - район местоположения метеостанции


Название, широта, долгота, высота метеостанции:
Томмот 58.9°ш. 126.3°д. 283 м над ур. моря [Российская Федерация]

Дополнительная информация

В oтличие oт бoльшинства пoгoдных сайтoв мы публикуем пoдрoбную метеoинфoрмацию в детальнoм прoфессиoнальнoм фoрмате.

Характеристики температуры и влажнoсти вoздуха измеряются на высoте 2 м в тени вдали oт зданий и деревьев.
Скoрoсть ветра измеряется на высoте 10 м (на урoвне рoста челoвека скoрoсть ветра ниже в 1.5-2 раза). Если метеoстанция нахoдится в гoрoде или в лесу, тo скoрoсть ветра занижена на 2-4 м/с пo сравнению с oткрытым местoм. Скoрoсть ветра над акватoриями крупных рек и oзёр, а также на вершинах хoлмoв на 2-5 м/с выше, чем в oбычных услoвиях.
Атмoсфернoе давление в разных тoчках местнoсти мoжет значительнo oтличаться oт давления на метеoстанции, в зависимoсти oт услoвий рельефа (при пoдъёме на 10 м давление пoнижается примернo на 1 мм рт.ст.).